Weather History for Farmington, NM

Change the Weather History Date:

Thursday, February 7, 2013

  Actual Average Record
Temperature  
Mean Temperature 34 °F -  
Max Temperature 48 °F 44 °F 62 °F (2009)
Min Temperature 21 °F 20 °F -14 °F (1989)
Degree Days  
Heating Degree Days 30    
Moisture  
Dew Point 22 °F    
Average Humidity 60    
Maximum Humidity 89    
Minimum Humidity 17    
Precipitation  
Precipitation 0.00 in - - ()
Sea Level Pressure  
Sea Level Pressure 30.14 in    
Wind  
Wind Speed 4 mph (SE)    
Max Wind Speed 9 mph    
Max Gust Speed -    
Visibility 10 miles    
Events      
Averages and records for this station are not official NWS values.
T = Trace of Precipitation, MM = Missing Value Source: NWS Daily Summary

Daily Weather History Graph

Daily Weather History Graph

Search for Another Location

Airport:

Trip Planner

Search our weather history database for the weather conditions in past years. The results will help you decide how hot, cold, wet, or windy it might be!

Date:

Astronomy

Feb. 07, 2013 Rise Set
Actual Time 7:09 AM MST 5:45 PM MST
Civil Twilight 6:42 AM MST 6:12 PM MST
Nautical Twilight 6:11 AM MST 6:42 PM MST
Astronomical Twilight 5:41 AM MST 7:13 PM MST
Moon 4:49 AM MST (2/7) 3:15 PM MST (2/7)
Length of Visible Light 11h 29m
Length of Day
10h 36m
Waning Crescent, 8% of the Moon is Illuminated
Feb 7
Waning Crescent
Feb 10
New
Feb 17
First Quarter
Feb 25
Full
Mar 4
Last Quarter

Hourly Weather History & Observations

Time (MST) Temp. Windchill Dew Point Humidity Pressure Visibility Wind Dir Wind Speed Gust Speed Precip Events Conditions
12:53 AM 30.9 °F 25.2 °F 25.0 °F 79% 30.04 in 10.0 mi WSW 5.8 mph - N/A   Clear
1:53 AM 32.0 °F 26.4 °F 25.0 °F 75% 30.04 in 10.0 mi WSW 5.8 mph - N/A   Clear
2:53 AM 28.9 °F 21.1 °F 23.0 °F 78% 30.06 in 10.0 mi West 8.1 mph - N/A   Clear
3:53 AM 28.0 °F - 24.1 °F 85% 30.07 in 10.0 mi Calm Calm - N/A   Clear
4:53 AM 28.0 °F - 24.1 °F 85% 30.10 in 10.0 mi Calm Calm - N/A   Clear
5:53 AM 25.0 °F - 21.9 °F 88% 30.13 in 10.0 mi Calm Calm - N/A   Clear
6:53 AM 21.9 °F 17.2 °F 19.0 °F 89% 30.19 in 10.0 mi NE 3.5 mph - N/A   Clear
7:53 AM 26.1 °F - 23.0 °F 88% 30.21 in 10.0 mi Calm Calm - N/A   Clear
8:53 AM 30.9 °F 24.3 °F 25.0 °F 79% 30.22 in 10.0 mi East 6.9 mph - N/A   Clear
9:53 AM 35.1 °F 30.1 °F 27.0 °F 72% 30.22 in 10.0 mi SE 5.8 mph - N/A   Clear
10:53 AM 37.9 °F 35.5 °F 27.0 °F 65% 30.22 in 10.0 mi SE 3.5 mph - N/A   Clear
11:53 AM 44.1 °F - 24.1 °F 45% 30.19 in 10.0 mi Calm Calm - N/A   Clear
12:53 PM 45.0 °F - 23.0 °F 42% 30.16 in 10.0 mi Calm Calm - N/A   Clear
1:53 PM 46.9 °F - 21.0 °F 36% 30.13 in 10.0 mi Calm Calm - N/A   Clear
2:53 PM 48.0 °F - 18.0 °F 30% 30.12 in 10.0 mi SW 3.5 mph - N/A   Clear
3:53 PM 48.0 °F - 18.0 °F 30% 30.11 in 10.0 mi SW 4.6 mph - N/A   Clear
4:53 PM 46.9 °F - 16.0 °F 29% 30.11 in 10.0 mi SSW 5.8 mph - N/A   Clear
5:53 PM 43.0 °F 41.3 °F 15.1 °F 32% 30.14 in 10.0 mi SW 3.5 mph - N/A   Clear
6:53 PM 36.0 °F - 16.0 °F 44% 30.17 in 10.0 mi Calm Calm - N/A   Clear
7:53 PM 30.9 °F 26.2 °F 19.0 °F 61% 30.17 in 10.0 mi ENE 4.6 mph - N/A   Clear
8:53 PM 28.0 °F 21.7 °F 19.0 °F 69% 30.17 in 10.0 mi East 5.8 mph - N/A   Clear
9:53 PM 30.0 °F 22.4 °F 19.0 °F 64% 30.14 in 10.0 mi ENE 8.1 mph - N/A   Clear
10:53 PM 30.9 °F 23.5 °F 21.0 °F 67% 30.12 in 10.0 mi East 8.1 mph - N/A   Clear
11:53 PM 30.0 °F 21.7 °F 21.0 °F 69% 30.09 in 10.0 mi East 9.2 mph - N/A   Partly Cloudy